Regional Weather Roundup
Issued by NWS

Home | Current Version | Previous Version | Graphics & Text | Print | Product List | Glossary On
Versions: 1 2 3 4 5 6 7 8 9 10 11 12 13 14 15 16 17 18 19 20 21 22 23 24 25 26 27 28 29 30 31 32 33 34 35 36 37 38 39 40 41 42 43 44 45 46 47 48 49 50
000
ASUS43 KFSD 221602
RWRSD

WEATHER ROUNDUP FOR SOUTH DAKOTA
NATIONAL WEATHER SERVICE SIOUX FALLS SD
1100 AM CDT WED MAR 22 2017

NOTE: "FAIR" INDICATES FEW OR NO CLOUDS BELOW 12,000 FEET WITH NO
SIGNIFICANT WEATHER AND/OR OBSTRUCTIONS TO VISIBILITY.


SDZ001>005-009-010-012>017-221700-
NORTHWEST AND NORTH CENTRAL SOUTH DAKOTA

CITY           SKY/WX    TMP DP  RH WIND       PRES   REMARKS
BUFFALO          N/A     36  32  85 SE17      29.82S
FAITH            N/A     38  32  79 S37G45    29.93S
MOBRIDGE       CLOUDY    35  24  64 SE25G38   30.08F WCI  23
$$

SDZ012>016-024>037-041>051-057-063-072>074-221700-
SOUTHWEST AND SOUTH CENTRAL SOUTH DAKOTA

CITY           SKY/WX    TMP DP  RH WIND       PRES   REMARKS
RAPID CTY ARPT CLOUDY    44  35  70 S29G39    29.88F
PIERRE         CLOUDY    33  28  81 SE21      30.13F WCI  21
CUSTER         CLOUDY    36  33  89 SW5       29.93F
ELLSWORTH AFB  CLOUDY    44  37  76 S25G33    29.82F
PHILIP         CLOUDY    44  34  67 S23G33    30.01F
PINE RIDGE     CLOUDY    45  36  70 S29G46    29.96F
SPEARFISH      FAIR      48  37  66 CALM      29.83S
WINNER         CLOUDY    36  29  75 S24G36    30.18F
$$

SDZ004>011-016>023-039-040-221700-
NORTHEAST SOUTH DAKOTA

CITY           SKY/WX    TMP DP  RH WIND       PRES   REMARKS
ABERDEEN       CLOUDY    29  17  61 S26       30.29F WCI  14
WATERTOWN      CLOUDY    27  14  58 S20G26    30.33F WCI  13
BROOKINGS      CLOUDY    28  15  58 S21       30.36F WCI  15
SISSETON         N/A     27  16  63 S23       30.37F WCI  12
$$

SDZ017-020-022-023-036>040-048>070-221700-
SOUTHEAST SOUTH DAKOTA

CITY           SKY/WX    TMP DP  RH WIND       PRES   REMARKS
SIOUX FALLS    CLOUDY    31  17  56 S15       30.41S WCI  20
HURON          MIX PCPN  28  22  78 SE20G33   30.30F WCI  15
CHAMBERLAIN    CLOUDY    33  29  84 SE22      30.23F WCI  21
MITCHELL       MIX PCPN  29  25  85 SE23      30.33F WCI  15
YANKTON        CLOUDY    30  21  69 SE14      30.37F WCI  20
$$

ABBREVIATIONS USED IN REMARKS
   TC - TEMPERATURE IN CELSIUS
  WCI - WIND CHILL INDEX
   HX - HEAT INDEX
  VSB - VISIBILITY





USA.gov is the U.S. government's official web portal to all federal, state and local government web resources and services.